Portada
METAR-TAF:

METAR-TAF

Aeroports :

Parsons, Tennessee, Estats Units d'Amèrica

latitud: 35-39-23N, longitud: 088-11-43W, altitud: 149 m

Observació

L'informe es va fer fa 30 minuts, a les 05:50 UTC
Vent calma
Temperatura 20°C
Humitat 100%
Pressió 1024 hPa
Visibilitat: 9.7 km
Cel clar
boirina

METAR: KPVE 200550Z AUTO 00000KT 6SM BR CLR 20/20 A3025 RMK A01

Hora: 01:20 (06:20 UTC)


TAF: manca

Observacions i pronòstics meteorològics de més de 4000 aeroports (METAR i TAF).

Les estacions disponibles són els punts grocs i vermells al mapa.

Posi el ratolí al punt desitjat per veure el nom de l'estació.

Feu clic per veure les observacions i els pronòstics meteorològics.

Per canviar el mapa: feu clic els botons verds amb una creu de color negre per apropar; al botó verd amb un guió per allunyar la imatge; o en les fletxes verdes per a mapes adjacents.


METAR-TAF: